Location: Brantley
(31.5822°N, 86.2569°W)
Time: 13:45:06
(UTC+00:00)

Courier 1B - Pass Details

Date: 18 February 2026
Orbit: 962 x 1208 km, 28.3° (Epoch: 11 March)

Event Time Altitude Azimuth Distance (km) Brightness Sun altitude
Rises 08:40:01 0° 260° (W) 4,103 - -47.9°
Reaches altitude 10° 08:46:14 10° 224° (SW) 3,111 - -46.6°
Maximum altitude 08:47:32 10° 214° (SW) 3,066 - -46.4°
Drops below altitude 10° 08:48:50 10° 204° (SSW) 3,092 - -46.1°
Sets 08:54:56 0° 167° (SSE) 3,992 - -44.9°
